[[{"header":{"parameterUnit":"m.s-1","parameterCategory":1,"la1":30.2991,"la2":30.254,"lo1":-89.0895,"lo2":-89.0444,"dx":0.0017,"dy":0.0017,"nx":28,"ny":28,"refTime":"2023-02-12T09:00:00:Z","depth":0,"parameterNumber":2,"parameterNumberName":"U-component_of_WINDS"},"data":[0,0,0,0,0,0,0,0,0,0,0,0,0,0,0,0,0,0,0,0,0,0,0,0,0,0,0,0,0,0,0,0,0,0,0,0,0,0,0,0,0,0,0,0,0,0,0,0,0,0,0,0,0,0,0,0,0,0,7.2412,7.2414,0,7.2583,7.2585,7.2587,7.2499,7.2494,7.249,7.2485,7.2662,7.267,7.2679,0,0,0,0,0,0,0,0,0,0,0,0,0,7.201,7.2018,7.2412,7.2414,7.2416,7.2583,7.2585,7.2588,7.2499,7.2494,7.2488,7.2483,7.2659,7.2669,7.268,0,0,0,0,0,0,0,0,0,0,0,0,0,7.2184,7.2021,7.2411,7.2392,7.2392,7.2582,7.2585,7.2588,7.2501,7.2494,7.2487,7.2481,7.2655,7.2668,7.2682,7.2901,0,0,7.2723,7.2728,0,0,0,0,0,0,0,0,7.2174,7.2198,7.2393,7.2394,7.2394,7.2512,7.2508,7.2693,7.2502,7.2459,7.2485,7.2477,7.2618,7.2634,7.2681,7.2909,7.2917,7.2724,7.2732,7.2738,7.2741,0,0,0,0,0,0,0,7.2162,7.219,7.2479,7.2396,7.2397,7.2376,7.2393,7.2543,7.2575,7.2463,7.2457,7.2478,7.2617,7.2668,7.2684,7.2919,7.2723,7.2735,7.2744,7.2749,7.3339,7.3346,0,0,0,0,0,0,7.2151,7.2181,7.2474,7.2485,7.2265,7.2388,7.2407,7.2481,7.2573,7.258,7.2484,7.2473,7.2649,7.2669,7.269,7.2955,7.2738,7.275,7.2758,7.3331,7.334,7.3349,0,0,0,0,0,0,7.2142,7.2178,7.2467,7.2331,7.2367,7.2403,7.2486,7.2488,7.254,7.2589,7.2594,7.253,7.2644,7.2671,7.285,7.296,7.2756,7.2768,7.3322,7.3334,7.3345,7.3484,0,0,0,0,0,0,7.2131,7.2175,7.2258,7.2334,7.2374,7.2623,7.2493,7.2497,7.2563,7.2551,7.2634,7.2641,7.2641,7.283,7.2863,7.2974,7.2779,7.3313,7.3327,7.3341,7.347,7.3499,7.3524,0,0,0,0,0,7.2117,7.229,7.2263,7.2299,7.2479,7.263,7.2653,7.2649,7.2572,7.2657,7.2688,7.2639,7.2942,7.2849,7.2885,7.3002,7.3306,7.3323,7.334,7.3458,7.3494,7.3523,0,0,0,0,0,0,7.2226,7.23,7.227,7.2473,7.2546,7.2615,7.2721,7.2686,7.2782,7.2767,7.2758,7.2778,7.2963,7.3,7.2896,7.3221,7.3112,7.3137,7.319,7.3224,7.325,7.3238,7.279,0,0,0,0,0,7.2274,7.239,7.2448,7.2622,7.266,7.2685,7.275,7.2741,7.2816,7.2846,7.2891,7.2967,7.3079,7.3153,7.3259,7.3475,7.3493,7.3574,7.3601,7.3622,7.3645,7.3764,7.3801,7.3405,7.3405,7.3405,0,0,7.2374,7.2428,7.2502,7.2645,7.27,7.2822,7.2711,7.2843,7.2934,7.2866,7.3038,7.3074,7.3158,7.3356,7.3446,7.3393,7.3758,7.3644,7.3661,7.3672,7.3785,7.3822,7.3856,7.3417,7.3415,7.3413,0,0,7.2618,7.267,7.2821,7.2879,7.2965,7.298,7.3017,7.3092,7.3113,7.3285,7.3238,7.3346,7.3539,7.3601,7.3658,7.3929,7.3887,7.3964,7.4104,7.4221,7.4252,7.4279,7.4377,7.4412,7.3985,7.3986,7.3986,0,7.2731,7.2911,7.2903,7.3041,7.3106,7.3051,7.3205,7.3262,7.3378,7.3424,7.3363,7.3607,7.3659,7.3872,7.3939,7.3986,7.4029,7.3954,7.4248,7.4275,7.4301,7.4394,7.4431,7.3994,7.3993,7.3992,7.3992,0,7.3047,7.3173,7.3285,7.3399,7.3477,7.3622,7.3637,7.3717,7.3701,7.3724,7.3901,7.3962,7.408,7.413,7.4116,7.4343,7.4307,7.4248,7.4138,7.4348,7.4435,7.4471,7.4007,7.4004,7.4001,7.3999,0,0,7.3364,7.3473,7.3514,7.3566,7.3658,7.3755,7.3899,7.4015,7.4084,7.4167,7.4287,7.4454,7.4399,7.4464,7.4457,7.4559,7.4771,7.4487,7.4488,7.4538,7.5027,7.5072,7.5113,7.4744,7.4751,7.4756,7.502,0,7.3615,7.3865,7.3863,7.4095,7.4212,7.4163,7.4288,7.4359,7.4384,7.4488,7.4516,7.4634,7.4553,7.4592,7.4691,7.4724,7.4869,7.4705,7.4858,7.4863,7.4839,7.5159,7.5207,7.5453,7.5054,7.506,7.5064,0,7.3941,7.4035,7.4279,7.4355,7.4404,7.4517,7.4624,7.4724,7.4803,7.4814,7.4888,7.4866,7.5013,7.49,7.5103,7.4992,7.5054,7.508,7.509,7.5104,7.4977,7.5183,7.5531,7.5568,7.5118,7.5113,7.511,0,7.4149,7.4337,7.4507,7.4553,7.4646,7.4726,7.4769,7.4841,7.4912,7.5006,7.5052,7.5162,7.5223,7.5309,7.5318,7.5234,7.5523,7.541,7.5538,7.5538,7.5601,7.5597,7.5965,7.5641,7.564,7.5639,7.5638,0,7.443,7.4582,7.4602,7.4708,7.4876,7.4873,7.5041,7.5076,7.5142,7.5254,7.5218,7.5324,7.5328,7.5437,7.5444,7.5613,7.564,7.5654,7.5655,7.5658,7.5657,7.5699,7.5683,7.5649,7.5647,7.5645,7.5643,0,7.4692,7.4711,7.4894,7.4968,7.499,7.5111,7.5174,7.5275,7.5297,7.544,7.5473,7.5509,7.5635,7.5652,7.58,7.5805,7.6008,7.599,7.5982,7.5979,7.6107,7.6095,7.6515,7.6571,7.6209,7.6213,7.6215,0,7.487,7.4986,7.5072,7.5144,7.5191,7.5308,7.538,7.5382,7.5459,7.556,7.5649,7.5772,7.5871,7.6076,7.6115,7.6229,7.6214,7.6353,7.6231,7.6231,7.6218,7.6211,7.6223,7.6377,7.6381,7.6384,7.6387,0,7.5185,7.519,7.5295,7.5405,7.5492,7.5579,7.566,7.5722,7.5734,7.5823,7.5952,7.6029,7.6181,7.6304,7.6416,7.6461,7.6428,7.6425,7.6461,7.6466,7.6457,7.6465,7.6047,7.6416,7.6413,7.6411,7.6409,7.6408,7.5412,7.5513,7.559,7.5709,7.5771,7.5848,7.5947,7.5982,7.609,7.6214,7.6208,7.6351,7.643,7.6577,7.663,7.6743,7.6697,7.6748,7.6762,7.6775,7.6788,7.6439,7.6763,7.6762,7.6761,7.6761,7.676,0,7.5726,7.5774,7.5883,7.5999,7.6093,7.6053,7.6142,7.6223,7.6349,7.6425,7.6523,7.6673,7.6793,7.6843,7.6961,7.7041,7.7029,7.7072,7.7067,7.7078,7.6821,7.6779,7.708,7.708,7.708,7.708,7.708,7.708,7.5901,7.607,7.6085,7.6285,7.6331,7.6471,7.6525,7.6597,7.6658,7.6827,7.6926,7.6958,7.7024,7.7147,7.7255,7.7267,7.7313,7.7363,7.7368,7.7128,7.7096,7.7065,7.7025,7.7373,7.7373,7.7615,7.7618,7.7619]},{"header":{"parameterUnit":"m.s-1","parameterCategory":1,"la1":30.2991,"la2":30.254,"lo1":-89.0895,"lo2":-89.0444,"dx":0.0017,"dy":0.0017,"nx":28,"ny":28,"refTime":"2023-02-12T09:00:00:Z","depth":0,"parameterNumber":3,"parameterNumberName":"V-component_of_WINDS"},"data":[0,0,0,0,0,0,0,0,0,0,0,0,0,0,0,0,0,0,0,0,0,0,0,0,0,0,0,0,0,0,0,0,0,0,0,0,0,0,0,0,0,0,0,0,0,0,0,0,0,0,0,0,0,0,0,0,0,0,-4.6684,-4.6686,0,-4.6835,-4.6837,-4.6839,-4.6841,-4.6839,-4.6837,-4.6835,-4.699,-4.6996,-4.7002,0,0,0,0,0,0,0,0,0,0,0,0,0,-4.6397,-4.6402,-4.6684,-4.6686,-4.6688,-4.6835,-4.6837,-4.6839,-4.6841,-4.6839,-4.6836,-4.6834,-4.6988,-4.6995,-4.7002,0,0,0,0,0,0,0,0,0,0,0,0,0,-4.6532,-4.6404,-4.6684,-4.6706,-4.671,-4.6835,-4.6837,-4.684,-4.6842,-4.6839,-4.6836,-4.6833,-4.6986,-4.6994,-4.7003,-4.7115,0,0,-4.703,-4.7034,0,0,0,0,0,0,0,0,-4.6524,-4.6543,-4.6701,-4.6705,-4.6709,-4.6816,-4.6793,-4.6932,-4.6842,-4.6792,-4.6835,-4.6832,-4.6934,-4.6947,-4.6982,-4.7122,-4.7129,-4.7031,-4.7036,-4.704,-4.7043,0,0,0,0,0,0,0,-4.6515,-4.6536,-4.6744,-4.6703,-4.6708,-4.6709,-4.6725,-4.6819,-4.6877,-4.6796,-4.6796,-4.6814,-4.6936,-4.6973,-4.6986,-4.7131,-4.7031,-4.7039,-4.7044,-4.7047,-4.7372,-4.7375,0,0,0,0,0,0,-4.6501,-4.6528,-4.6739,-4.6748,-4.6608,-4.6717,-4.6735,-4.6785,-4.6876,-4.6887,-4.6816,-4.6814,-4.696,-4.6975,-4.6991,-4.7129,-4.704,-4.7048,-4.7053,-4.7369,-4.7373,-4.7377,0,0,0,0,0,0,-4.6495,-4.652,-4.6733,-4.6639,-4.6666,-4.6725,-4.6781,-4.6789,-4.6827,-4.6892,-4.6902,-4.6844,-4.6958,-4.6979,-4.7085,-4.7134,-4.7052,-4.706,-4.7365,-4.737,-4.7375,-4.7405,0,0,0,0,0,0,-4.6487,-4.6518,-4.6561,-4.664,-4.6671,-4.6824,-4.6784,-4.6794,-4.6842,-4.684,-4.692,-4.6931,-4.6957,-4.7071,-4.7093,-4.7145,-4.7067,-4.7361,-4.7367,-4.7373,-4.74,-4.7411,-4.742,0,0,0,0,0,-4.6476,-4.6563,-4.6563,-4.6588,-4.6726,-4.6827,-4.6845,-4.6873,-4.6846,-4.689,-4.6932,-4.6929,-4.7125,-4.7082,-4.7107,-4.7162,-4.7358,-4.7366,-4.7373,-4.7396,-4.7409,-4.7419,0,0,0,0,0,0,-4.6488,-4.6574,-4.6575,-4.6689,-4.6751,-4.6827,-4.6883,-4.6886,-4.6956,-4.6951,-4.6984,-4.7002,-4.7108,-4.7145,-4.7096,-4.7276,-4.7238,-4.7251,-4.7247,-4.726,-4.727,-4.7258,-4.7075,0,0,0,0,0,-4.6504,-4.6579,-4.665,-4.6744,-4.6775,-4.6824,-4.6869,-4.6885,-4.695,-4.6976,-4.7026,-4.7089,-4.7165,-4.7215,-4.7288,-4.7406,-4.7423,-4.7456,-4.7466,-4.7473,-4.7484,-4.7549,-4.7565,-4.7401,-4.7401,-4.7401,0,0,-4.6538,-4.6594,-4.6639,-4.6748,-4.6797,-4.6874,-4.6845,-4.6928,-4.6985,-4.6989,-4.7092,-4.7131,-4.7203,-4.7316,-4.7367,-4.735,-4.7533,-4.7483,-4.7489,-4.7495,-4.7559,-4.7574,-4.7588,-4.7406,-4.7405,-4.7404,0,0,-4.6639,-4.6689,-4.6773,-4.6823,-4.6899,-4.6931,-4.6951,-4.7027,-4.7053,-4.7157,-4.7162,-4.7231,-4.7361,-4.7413,-4.7456,-4.7578,-4.7577,-4.7601,-4.7652,-4.7715,-4.7728,-4.774,-4.7784,-4.7799,-4.7611,-4.7611,-4.7611,0,-4.6672,-4.6787,-4.6816,-4.6899,-4.6947,-4.6954,-4.704,-4.7087,-4.7183,-4.7216,-4.7196,-4.736,-4.7409,-4.7534,-4.7564,-4.7599,-4.7623,-4.7592,-4.7724,-4.7736,-4.7747,-4.7789,-4.7806,-4.7614,-4.7613,-4.7613,-4.7613,0,-4.6824,-4.6904,-4.6963,-4.7055,-4.711,-4.7194,-4.7236,-4.7288,-4.73,-4.7334,-4.744,-4.75,-4.7586,-4.7617,-4.763,-4.7744,-4.7731,-4.7717,-4.768,-4.7765,-4.7805,-4.7821,-4.7617,-4.7616,-4.7615,-4.7615,0,0,-4.6936,-4.7044,-4.7065,-4.7107,-4.7191,-4.7254,-4.7339,-4.7423,-4.7467,-4.7533,-4.7605,-4.7715,-4.7703,-4.7753,-4.7771,-4.7827,-4.792,-4.7806,-4.7808,-4.7825,-4.805,-4.806,-4.8078,-4.792,-4.7923,-4.7926,-4.8044,0,-4.7046,-4.7196,-4.7225,-4.7356,-4.743,-4.7439,-4.7512,-4.7572,-4.7606,-4.7675,-4.7713,-4.7791,-4.7769,-4.7799,-4.7854,-4.7897,-4.7965,-4.7888,-4.7987,-4.7991,-4.7969,-4.8099,-4.811,-4.8218,-4.806,-4.8062,-4.8064,0,-4.7195,-4.7264,-4.7402,-4.7477,-4.751,-4.7575,-4.7655,-4.7721,-4.7789,-4.781,-4.7865,-4.7878,-4.7966,-4.7925,-4.8048,-4.7995,-4.8037,-4.8064,-4.8069,-4.808,-4.8032,-4.8113,-4.8254,-4.827,-4.8089,-4.8087,-4.8085,0,-4.7263,-4.7392,-4.7491,-4.7527,-4.7616,-4.7662,-4.7702,-4.7767,-4.7816,-4.7886,-4.7919,-4.7998,-4.8042,-4.8103,-4.8137,-4.8104,-4.8257,-4.8218,-4.8277,-4.8277,-4.8309,-4.8307,-4.8459,-4.8336,-4.8336,-4.8336,-4.8335,0,-4.7383,-4.7467,-4.7523,-4.7584,-4.7679,-4.7711,-4.7804,-4.7843,-4.7902,-4.7971,-4.7983,-4.8047,-4.8088,-4.8159,-4.8186,-4.8283,-4.8303,-4.8323,-4.8329,-4.8322,-4.8319,-4.835,-4.8343,-4.834,-4.8339,-4.8338,-4.8337,0,-4.7476,-4.7516,-4.7625,-4.7701,-4.7722,-4.7789,-4.7854,-4.7914,-4.7948,-4.8036,-4.8058,-4.8113,-4.8196,-4.8236,-4.834,-4.8358,-4.8469,-4.847,-4.8446,-4.8449,-4.8505,-4.85,-4.8683,-4.8709,-4.8568,-4.857,-4.8571,0,-4.755,-4.7615,-4.7698,-4.7745,-4.7786,-4.7861,-4.7912,-4.7946,-4.7998,-4.8081,-4.8131,-4.8215,-4.8285,-4.8418,-4.8467,-4.8547,-4.855,-4.8609,-4.8562,-4.8553,-4.8551,-4.8547,-4.8554,-4.8617,-4.8618,-4.862,-4.862,0,-4.7677,-4.7694,-4.7766,-4.7845,-4.7905,-4.7969,-4.8032,-4.807,-4.8115,-4.8173,-4.8259,-4.8312,-4.8419,-4.8502,-4.8586,-4.8626,-4.8632,-4.8635,-4.8653,-4.8646,-4.863,-4.864,-4.8469,-4.863,-4.8629,-4.8629,-4.8628,-4.8628,-4.7763,-4.7822,-4.7889,-4.7969,-4.802,-4.8079,-4.8139,-4.8181,-4.8253,-4.8343,-4.8359,-4.845,-4.8517,-4.8629,-4.8673,-4.8745,-4.8732,-4.8758,-4.8764,-4.877,-4.8774,-4.8618,-4.8761,-4.876,-4.876,-4.876,-4.876,0,-4.7891,-4.7935,-4.8009,-4.8096,-4.8159,-4.8158,-4.8228,-4.8281,-4.8361,-4.8423,-4.8492,-4.8591,-4.8672,-4.8728,-4.881,-4.8857,-4.8862,-4.8878,-4.8875,-4.8884,-4.8781,-4.8757,-4.8873,-4.8873,-4.8873,-4.8873,-4.8873,-4.8873,-4.7966,-4.8064,-4.8089,-4.8214,-4.8257,-4.8347,-4.8387,-4.8442,-4.8491,-4.8601,-4.8669,-4.8705,-4.8765,-4.8852,-4.8927,-4.8941,-4.8971,-4.8988,-4.9002,-4.8904,-4.8892,-4.888,-4.8858,-4.8994,-4.8994,-4.9099,-4.91,-4.9101]}]]